Location: Casa Rossa
(45.2389°N, 12.2056°E)
Time: 23:44:56
(UTC+00:00)

Cosmos 1802 Rocket - Pass Details

Date: 14 July 2020
Orbit: 954 x 1012 km, 82.9° (Epoch: 14 August)

Event Time Altitude Azimuth Distance (km) Brightness Sun altitude
Exits shadow 01:03:01 31° 198° (SSW) 1,681 4.7 -18.9°
Maximum altitude 01:06:18 77° 279° (W) 1,039 4.0 -18.7°
Drops below altitude 10° 01:12:46 10° 6° (N) 2,803 7.4 -18.1°
Sets 01:15:20 0° 8° (N) 3,758 8.4 -17.9°
